Content
SEND FEEDBACK

Daily
Averages
Monthly
Summary
Canada

MONTREAL, QUEBEC


Home > North America > Canada > Quebec
Elevation: 118 feet     Latitude: 45 28N     Longitude: 073 45W

WEATHER
 
SELECT A DAY
Number of Records: 198,587;   Date Range: 1/1/95 - 8/31/14
 
SHARE

PRINT THIS DATA

[ ← Previous Day ]
WEATHER ALMANAC - JANUARY 14, 2013
[ Next Day → ]
[ °C ]   °F
Weather ElementAverageHighLow
Temperature38.1 °F42.8 °F (5:00 am)32 °F (10:00 pm)
Dewpoint23.3 °F41 °F (2:00 am) (7:00 pm)
Humidity74.4 %100 % (1:00 am)44 % (7:00 pm)
Wind Speed14 mph25.3 mph (8:00 am)
Wind Gust34.5 mph (8:00 am)
Weather ElementAverage
Visibility16.2 mi
Wind DirectionWSW (232 °)

Weather ElementTotal
Precipitation---
Heating Degree Days27.6 (Base 65)
Averaged from 35 records on January 14, 2013
WEATHER CONDITIONS BREAKOUT
WIND DIRECTION BREAKOUT
WEATHER BY HOUR - JANUARY 14, 2013
[ °C ]   °F
Local TimeTemperatureDewpointHumidityBarometerVisibilityWind DirectionWind SpeedGust SpeedPrecipitationEventsConditions
12:32 AM37.4 °F0.0 °F8.0 miSE (140°)9.2 mphLight Drizzle
1:00 AM38.0 °F38.0 °F98 %29.78 in7.0 miSE (140°)9.2 mphRainLight Drizzle
1:00 AM37.4 °F37.4 °F100 %29.78 in8.0 miSE (130°)10.4 mphLight Drizzle
2:00 AM41.0 °F41.0 °F100 %29.75 in8.0 miEast (100°)5.8 mphLight Drizzle
2:27 AM39.2 °F0.0 °F10.0 miESE (120°)8.1 mphLight Drizzle
3:00 AM39.2 °F37.4 °F93 %29.72 in10.0 miESE (120°)5.8 mphLight Drizzle
4:00 AM41.0 °F39.2 °F93 %29.68 in12.0 miSSE (160°)10.4 mphLight Drizzle
5:00 AM42.8 °F41.0 °F93 %29.69 in6.0 miWSW (240°)11.5 mphRainLight Rain
5:14 AM41.0 °F0.0 °F6.0 miWSW (250°)11.5 mph19.6 mphRainLight Rain
6:00 AM42.8 °F41.0 °F93 %29.75 in15.0 miWSW (250°)11.5 mphMostly Cloudy
6:47 AM41.0 °F0.0 °F15.0 miWSW (250°)16.1 mphMostly Cloudy
7:00 AM42.0 °F39.0 °F84 %29.84 in15.0 miWSW (240°)18.4 mphPartly Cloudy
7:00 AM41.0 °F39.2 °F93 %29.84 in15.0 miWSW (240°)18.4 mph24.2 mphMostly Cloudy
7:17 AM41.0 °F0.0 °F15.0 miWSW (250°)18.4 mph28.8 mphMostly Cloudy
7:30 AM41.0 °F0.0 °F15.0 miWSW (250°)23.0 mph29.9 mphMostly Cloudy
8:00 AM39.2 °F35.6 °F87 %29.92 in15.0 miWest (260°)25.3 mph34.5 mphScattered Clouds
9:00 AM39.2 °F30.2 °F70 %30.00 in15.0 miWest (260°)19.6 mph32.2 mphMostly Cloudy
10:00 AM39.2 °F32.0 °F75 %30.05 in15.0 miWest (260°)17.3 mph23.0 mphPartly Cloudy
11:00 AM39.2 °F32.0 °F75 %30.07 in30.0 miWest (270°)17.3 mph23.0 mphMostly Cloudy
11:16 AM37.4 °F0.0 °F30.0 miWest (270°)19.6 mph26.5 mphRainLight Rain Showers
11:42 AM37.4 °F0.0 °F15.0 miWest (260°)25.3 mph32.2 mphMostly Cloudy
12:00 PM37.4 °F30.2 °F75 %30.09 in15.0 miWest (270°)19.6 mph29.9 mphScattered Clouds
1:00 PM37.0 °F27.0 °F56 %30.12 in28.0 miWest (260°)17.3 mphPartly Cloudy
1:00 PM37.4 °F26.6 °F65 %30.12 in30.0 miWest (260°)18.4 mphMostly Cloudy
2:00 PM39.2 °F26.6 °F61 %30.15 in30.0 miWest (260°)15.0 mphMostly Cloudy
3:00 PM37.4 °F24.8 °F60 %30.18 in30.0 miWSW (250°)17.3 mphPartly Cloudy
4:00 PM37.4 °F24.8 °F60 %30.20 in30.0 miWest (260°)13.8 mph20.7 mphMostly Cloudy
5:00 PM35.6 °F23.0 °F60 %30.21 in15.0 miWest (260°)11.5 mphPartly Cloudy
6:00 PM33.8 °F21.2 °F60 %30.22 in15.0 miWest (260°)10.4 mphPartly Cloudy
7:00 PM34.0 °F20.0 °F44 %30.25 in15.0 miWest (270°)10.4 mphMostly Cloudy
7:00 PM33.8 °F19.4 °F56 %30.25 in15.0 miWest (260°)10.4 mphMostly Cloudy
8:00 PM33.8 °F21.2 °F60 %30.28 in15.0 miWSW (240°)10.4 mphMostly Cloudy
9:00 PM33.8 °F21.2 °F60 %30.28 in15.0 miWest (260°)6.9 mphMostly Cloudy
10:00 PM32.0 °F23.0 °F69 %30.26 in15.0 miWest (280°)9.2 mphMostly Cloudy
11:00 PM32.0 °F23.0 °F69 %30.28 in15.0 miWest (270°)6.9 mphMostly Cloudy
Hourly data recorded from CYUL, located miles away from Montreal, Quebec







STORIES FROM OUR PARTNERS